Regional Weather Roundup
Issued by NWS Mt. Holly, NJ

Current Version | Previous Version | Text Only | Print | Product List | Glossary On
Versions: 1 2 3 4 5 6 7 8 9 10 11 12 13 14 15 16 17 18 19 20 21 22 23 24 25 26 27 28 29 30 31 32 33 34 35 36 37 38 39 40 41 42 43 44 45 46 47 48 49 50
000
ASUS41 KPHI 230012
RWRPHI

REGIONAL WEATHER ROUNDUP
NATIONAL WEATHER SERVICE MOUNT HOLLY NJ
700 PM EST FRI FEB 22 2019

NOTE:  "FAIR" INDICATES FEW OR NO CLOUDS BELOW 12,000 FEET WITH NO
SIGNIFICANT WEATHER AND/OR OBSTRUCTIONS TO VISIBILITY.

 * = STATION DOES NOT REPORT PRECIPITATION (E.G. RAIN, SNOW, ETC.)
        OR FOG.

NJZ015>026-230100-
SOUTHERN NEW JERSEY

CITY           SKY/WX    TMP DP  RH WIND       PRES   REMARKS
POMONA         FAIR      38  32  79 CALM      30.43R
6HR MIN TEMP:  37; 6HR MAX TEMP:  47;

WILDWOOD*      FAIR      42  28  57 NW6       30.43R
MILLVILLE      FAIR      37  28  70 W3        30.42R
MOUNT HOLLY    FAIR      41  23  48 CALM      30.43R
TRENTON        FAIR      42  24  49 N8        30.42R
6HR MIN TEMP:  42; 6HR MAX TEMP:  47;


$$
NJZ001>014-230100-
NORTHERN NEW JERSEY

CITY           SKY/WX    TMP DP  RH WIND       PRES   REMARKS
SUSSEX         FAIR      36  22  56 N7        30.43R WCI  30
ANDOVER*         N/A     35  21  56 N6        30.42R WCI  30
MORRISTOWN     CLOUDY    39  23  52 N9        30.44R WCI  33
NEWARK         CLOUDY    41  21  44 N14       30.43R
TETERBORO      FAIR      41  22  46 N16       30.42R
CALDWELL       FAIR      39  21  48 N5        30.44R
SOMERVILLE     FAIR      40  22  48 N3        30.41R
ALLAIRE*       FAIR      40  24  53 NW5       30.43R
TOMS RIVER*    FAIR      38  27  64 W3        30.43R

$$
PAZ043-044-047-054-055-060>062-066>071-230100-
EASTERN PENNSYLVANIA

CITY           SKY/WX    TMP DP  RH WIND       PRES   REMARKS
PHILADELPHIA   CLOUDY    43  23  45 N7        30.43R
6HR MIN TEMP:  43; 6HR MAX TEMP:  47;

NORTH PHILA    FAIR      43  22  43 N3        30.44R
BLUE BELL*     FAIR      37  27  65 CALM      30.43S
DOYLESTOWN     FAIR      39  22  50 N7        30.41R WCI  34
QUAKERTOWN*    CLEAR     39  23  52 N3        30.41
PERKASIE*      FAIR      37  23  56 N6        30.41S WCI  33
POTTSTOWN      FAIR      39  23  52 N6        30.42R WCI  35
LANCASTER      FAIR      42  24  49 CALM      30.41R
COATESVILLE    FAIR      37  25  60 NW5       30.41S WCI  34
READING        FAIR      39  27  62 NW6       30.40S WCI  35
6HR MIN TEMP:  38; 6HR MAX TEMP:  45;

ALLENTOWN      FAIR      39  23  52 N8        30.42R WCI  33
6HR MIN TEMP:  38; 6HR MAX TEMP:  46;

MOUNT POCONO   FAIR      28  21  75 NW13      30.35R WCI  17
6HR MIN TEMP:  28; 6HR MAX TEMP:  32;

HAZLETON       FAIR      32  21  64 N3        30.40S
LEHIGHTON      FAIR      36  23  60 CALM      30.43R
WILKES BARRE   FAIR      33  22  63 N6        30.42R WCI  28

$$
DEZALL-MDZ008-012-015-019-020-230100-
DELAWARE AND EASTERN MARYLAND

CITY           SKY/WX    TMP DP  RH WIND       PRES   REMARKS
WILMINGTON     FAIR      40  25  55 NW6       30.43R
6HR MIN TEMP:  40; 6HR MAX TEMP:  46;

DOVER          FAIR      40  29  64 NW5       30.42R
GEORGETOWN     FAIR      45  29  53 CALM      30.44R
6HR MIN TEMP:  45; 6HR MAX TEMP:  51;

EASTON         MOCLDY    45  28  53 CALM      30.46R
ABERDEEN       CLOUDY    36  28  75 NW5       30.43R WCI  32
PATUXENT       CLOUDY    44  33  65 CALM      30.43
OCEAN CITY     FAIR      41  33  73 CALM      30.44R
WALLOPS ISLAND CLOUDY    43  33  68 CALM      30.44R
CAMBRIDGE      PTCLDY    43  30  61 CALM      30.44R
SALISBURY      FAIR      44  37  76 CALM      30.43R

$$
PAZ001-021-NYZ056-072-MDZ011-DCZ001-230100-
OTHER NEARBY LOCATIONS

CITY           SKY/WX    TMP DP  RH WIND       PRES   REMARKS
HARRISBURG     CLOUDY    41  24  51 CALM      30.41S
STATE COLLEGE  CLEAR     37  19  48 CALM      30.38S
WILLIAMSPORT   FAIR      37  23  56 CALM      30.42R
BINGHAMTON     CLOUDY    28  20  71 NW5       30.38R WCI  23
NEW YORK CITY  FAIR      41  21  44 MISG      30.44R
BALTIMORE      CLOUDY    44  26  49 N3        30.41R
WASHINGTON DC  CLOUDY    46  29  51 N8        30.43R

$$



USA.gov is the U.S. government's official web portal to all federal, state and local government web resources and services.